Location: Bois de la Silve
(44.4667°N, 6.7833°E)
Time: 19:05:56
(UTC+00:00)

Cosmos 1833 Rocket - Pass Details

Date: 14 July 2020
Orbit: 832 x 840 km, 71.0° (Epoch: 14 August)

Event Time Altitude Azimuth Distance (km) Brightness Sun altitude
Exits shadow 00:44:46 26° 137° (SE) 1,571 3.8 -22.2°
Maximum altitude 00:46:31 32° 104° (ESE) 1,398 3.8 -22.1°
Drops below altitude 10° 00:51:26 10° 43° (NE) 2,450 6.0 -21.8°
Sets 00:54:05 0° 34° (NE) 3,390 7.2 -21.7°
